KW1M Weather Reports


Display with metric or nautical units.
time (UTC)temp
F
wind
direction
speed
MPH
gust
MPH
rain 1hr
in
rain 24hr
in
rain mn
in
humidity
%
barometer
mb
20260901190100 66 160 0.0 1.0 0.00 0.28 0.28 88 1018.6
20260901184542 66 195 0.0 0.0 0.00 0.28 0.28 88 1018.5
20260901183037 66 101 0.0 0.0 0.00 0.28 0.28 89 1018.5
20260901181538 65 148 0.0 1.0 0.00 0.28 0.28 89 1018.4
20260901180034 65 166 0.0 0.0 0.00 0.28 0.28 90 1018.4
20260901174543 64 122 0.0 0.0 0.00 0.28 0.28 91 1018.2
20260901173034 63 27 0.0 1.0 0.00 0.28 0.28 90 1018.0
20260901171533 63 159 0.0 2.0 0.01 0.28 0.28 91 1018.1
20260901170031 62 141 0.0 1.0 0.01 0.28 0.28 94 1017.8
20260901164533 61 125 0.0 0.0 0.01 0.28 0.28 95 1017.9
20260901163058 61 122 0.0 1.0 0.01 0.28 0.28 95 1018.1
20260901161531 60 302 0.0 1.0 0.00 0.27 0.27 95 1018.4
20260901160029 60 203 0.0 0.0 0.00 0.27 0.27 95 1018.5
20260901154545 60 203 0.0 1.0 0.00 0.27 0.27 95 1018.7
20260901153037 59 354 0.0 0.0 0.00 0.27 0.27 94 1018.4
20260901151533 60 140 0.0 0.0 0.00 0.27 0.27 94 1018.2
20260901150027 60 159 0.0 0.0 0.00 0.27 0.27 93 1018.2
20260901144528 61 221 0.0 0.0 0.00 0.27 0.27 94 1018.3
20260901143027 60 134 0.0 1.0 0.01 0.27 0.27 95 1018.1
20260901141527 60 122 0.0 1.0 0.01 0.27 0.27 96 1018.1
20260901140025 59 115 0.0 1.0 0.03 0.27 0.27 96 1018.1
20260901134526 58 141 0.0 1.0 0.06 0.27 0.27 96 1018.1
20260901133024 57 136 0.0 1.0 0.07 0.26 0.26 96 1018.0
20260901131523 57 150 0.0 0.0 0.09 0.26 0.26 95 1018.4
20260901130022 57 179 0.0 0.0 0.09 0.24 0.24 95 1018.6
20260901124521 58 155 0.0 0.0 0.13 0.21 0.21 95 1018.7
20260901123020 58 155 0.0 0.0 0.15 0.19 0.19 95 1018.9
20260901121526 58 155 0.0 0.0 0.16 0.17 0.17 94 1018.9
20260901120017 58 155 0.0 0.0 0.15 0.15 0.15 94 1019.1
20260901114513 59 297 0.0 0.0 0.08 0.08 0.08 93 1018.9
20260901113010 59 297 0.0 0.0 0.04 0.04 0.04 92 1018.5
20260901111508 60 297 0.0 0.0 0.01 0.01 0.01 90 1018.3
20260901110008 61 297 0.0 0.0 0.00 0.00 0.00 88 1018.2
20260901104507 61 85 0.0 0.0 0.00 0.00 0.00 88 1018.1
20260901103000 62 84 0.0 0.0 0.00 0.00 0.00 86 1017.9
20260901101600 62 330 0.0 0.0 0.00 0.00 0.00 85 1017.9
20260901100100 62 6 0.0 0.0 0.00 0.00 0.00 87 1017.5
20260901094556 63 6 0.0 0.0 0.00 0.00 0.00 88 1017.5
20260901093059 63 6 0.0 0.0 0.00 0.00 0.00 88 1017.4
20260901091604 63 12 0.0 0.0 0.00 0.00 0.00 88 1017.4
20260901090059 63 224 0.0 0.0 0.00 0.00 0.00 88 1017.4
20260901084553 63 224 0.0 0.0 0.00 0.00 0.00 88 1017.5
20260901083052 63 123 0.0 0.0 0.00 0.00 0.00 88 1017.3
20260901081551 63 122 0.0 0.0 0.00 0.00 0.00 88 1017.6
20260901080106 63 122 0.0 0.0 0.00 0.00 0.00 88 1017.6
20260901074547 63 122 0.0 0.0 0.00 0.00 0.00 89 1017.6
20260901073046 63 122 0.0 0.0 0.00 0.00 0.00 89 1018.0
20260901071547 63 122 0.0 0.0 0.00 0.00 0.00 89 1018.1
20260901070054 63 122 0.0 0.0 0.00 0.00 0.00 88 1017.8
20260901064549 63 122 0.0 0.0 0.00 0.00 0.00 87 1018.1
20260901063040 64 122 0.0 0.0 0.00 0.00 0.00 86 1018.1
20260901061539 64 118 0.0 0.0 0.00 0.00 0.00 86 1018.3
20260901060042 64 124 0.0 0.0 0.00 0.00 0.00 86 1018.2
20260901054537 64 109 0.0 0.0 0.00 0.00 0.00 86 1018.3
20260901053036 64 136 0.0 0.0 0.00 0.00 0.00 85 1018.3
20260901051536 64 109 0.0 0.0 0.00 0.00 0.00 84 1018.4
20260901050034 64 109 0.0 0.0 0.00 0.00 0.00 84 1018.5
20260901044535 64 109 0.0 0.0 0.00 0.00 0.00 84 1018.2
20260901043032 64 117 0.0 0.0 0.00 0.00 0.00 84 1018.3
20260901041530 64 117 0.0 0.0 0.00 0.00 0.00 83 1018.2
20260901040026 65 117 0.0 0.0 0.00 0.00 0.00 82 1018.1
20260901034525 66 117 0.0 0.0 0.00 0.00 0.00 81 1018.3
20260901033035 66 117 0.0 0.0 0.00 0.00 0.00 80 1018.2
20260901031532 66 125 0.0 0.0 0.00 0.00 0.00 80 1018.3
20260901030024 66 126 0.0 0.0 0.00 0.00 0.00 80 1018.4
20260901024524 66 120 0.0 0.0 0.00 0.00 0.00 80 1018.4
20260901023023 66 120 0.0 0.0 0.00 0.00 0.00 79 1018.3
20260901021542 66 162 0.0 0.0 0.00 0.00 0.00 79 1018.3
20260901020023 67 197 0.0 0.0 0.00 0.00 0.00 77 1018.3
20260901014522 67 197 0.0 0.0 0.00 0.00 0.00 76 1018.2
20260901013030 68 197 0.0 0.0 0.00 0.00 0.00 76 1018.4
20260901011521 68 224 0.0 0.0 0.00 0.00 0.00 74 1018.5
20260901010038 68 231 0.0 0.0 0.00 0.00 0.00 73 1018.5
20260901004520 69 180 0.0 0.0 0.00 0.00 0.00 70 1018.4
20260901003026 70 177 0.0 1.0 0.00 0.00 0.00 68 1018.4
20260901001519 70 272 0.0 0.0 0.00 0.00 0.00 65 1018.3
20260901000018 71 136 0.0 0.0 0.00 0.00 0.00 62 1018.2
20260831234518 71 141 0.0 0.0 0.00 0.00 0.00 59 1018.1
20260831233017 72 149 0.0 0.0 0.00 0.00 0.00 54 1018.2
20260831231518 73 149 0.0 0.0 0.00 0.00 0.00 51 1018.3
20260831230017 74 129 0.0 0.0 0.00 0.00 0.00 49 1018.4
20260831224516 76 129 0.0 0.0 0.00 0.00 0.00 47 1018.5
20260831223027 78 129 0.0 0.0 0.00 0.00 0.00 46 1018.4
20260831221516 78 129 0.0 0.0 0.00 0.00 0.00 45 1018.4
20260831220015 77 222 0.0 3.0 0.00 0.00 0.00 43 1018.4
20260831214514 78 145 0.0 4.0 0.00 0.00 0.00 42 1018.3
20260831213016 79 128 0.0 6.0 0.00 0.00 0.00 40 1018.3
20260831211512 79 203 1.0 6.0 0.00 0.00 0.00 39 1018.4
20260831210014 79 294 0.0 7.0 0.00 0.00 0.00 37 1018.5
20260831204508 79 288 0.0 4.0 0.00 0.00 0.00 42 1018.6
20260831203010 78 304 0.0 7.0 0.00 0.00 0.00 43 1018.8
20260831201503 77 278 0.0 5.0 0.00 0.00 0.00 45 1018.8
20260831200006 80 308 0.0 7.0 0.00 0.00 0.00 39 1018.8
20260831194641 80 137 0.0 7.0 0.00 0.00 0.00 45 1018.8
20260831193056 77 240 0.0 6.0 0.00 0.00 0.00 46 1018.9
20260831191556 77 158 5.0 12.0 0.00 0.00 0.00 47 1019.0